,,Stat5,,Stat1,,Stat2,,Stat3,,Stat4,,Wind1,,Wind1
time,status,PA1M_AVG,status,PR1M_SUM,status,RH1M_AVG,status,SR1M_AVG,status,TA1M_AVG,status,W1dAve1m,status,W1sAve1m
2000-06-04, 00:00:01,VALID,915.48,VALID,0,VALID,95.0016,VALID,0.0849042,VALID,20.844,VALID,218,VALID,0.763622
2000-06-04, 00:01:00,VALID,915.483,VALID,0,VALID,94.9812,VALID,0.0339617,VALID,20.8572,VALID,212,VALID,0.929228
2000-06-04, 00:02:00,VALID,915.486,VALID,0,VALID,94.8452,VALID,0.0509425,VALID,20.8313,VALID,218,VALID,0.596917
2000-06-04, 00:03:00,VALID,915.482,VALID,0,VALID,94.8503,VALID,0.0509425,VALID,20.8114,VALID,201,VALID,0.783053
2000-06-04, 00:04:00,VALID,915.477,VALID,0,VALID,94.9761,VALID,0.0169808,VALID,20.7958,VALID,195,VALID,0.915234
2000-06-04, 00:05:00,VALID,915.462,VALID,0,VALID,95.1682,VALID,0.0339617,VALID,20.7702,VALID,198,VALID,0.878906
2000-06-04, 00:06:00,VALID,915.456,VALID,0,VALID,95.2928,VALID,0.0679233,VALID,20.7535,VALID,197,VALID,1.10135
2000-06-04, 00:07:00,VALID,915.456,VALID,0,VALID,95.3093,VALID,0.0849042,VALID,20.757,VALID,201,VALID,1.16186
2000-06-04, 00:08:00,VALID,915.454,VALID,0,VALID,95.0702,VALID,0.0679233,VALID,20.7538,VALID,204,VALID,0.899639
2000-06-04, 00:09:00,VALID,915.475,VALID,0,VALID,95.1974,VALID,0.0169808,VALID,20.7645,VALID,190,VALID,1.22175
2000-06-04, 00:10:00,VALID,915.472,VALID,0,VALID,95.0906,VALID,-0.0509425,VALID,20.7782,VALID,190,VALID,1.35417
2000-06-04, 00:11:00,VALID,915.48,VALID,0,VALID,94.8757,VALID,-0.0679233,VALID,20.8006,VALID,184,VALID,1.20806
2000-06-04, 00:12:00,VALID,915.485,VALID,0,VALID,94.7028,VALID,-0.0169808,VALID,20.7966,VALID,188,VALID,1.13178
2000-06-04, 00:13:00,VALID,915.497,VALID,0,VALID,94.4917,VALID,-0.0339617,VALID,20.82,VALID,182,VALID,1.0625
2000-06-04, 00:14:00,VALID,915.495,VALID,0,VALID,94.4624,VALID,0,VALID,20.8227,VALID,184,VALID,0.966639
2000-06-04, 00:15:00,VALID,915.49,VALID,0,VALID,94.3976,VALID,-0.0339617,VALID,20.8321,VALID,185,VALID,1.01267
2000-06-04, 00:16:00,VALID,915.472,VALID,0,VALID,94.278,VALID,-0.0509425,VALID,20.845,VALID,182,VALID,1.07143
2000-06-04, 00:17:00,VALID,915.454,VALID,0,VALID,94.1954,VALID,-0.0849042,VALID,20.849,VALID,183,VALID,0.775825
2000-06-04, 00:18:00,VALID,915.415,VALID,0,VALID,94.2106,VALID,-0.0169808,VALID,20.8418,VALID,181,VALID,1.02544
2000-06-04, 00:19:00,VALID,915.38,VALID,0,VALID,94.1827,VALID,-0.0679233,VALID,20.8391,VALID,181,VALID,1.04071
2000-06-04, 00:20:00,VALID,915.35,VALID,0,VALID,94.1992,VALID,-0.0339617,VALID,20.8262,VALID,180,VALID,1.16982
2000-06-04, 00:21:00,VALID,915.31,VALID,0,VALID,94.1649,VALID,-0.0339617,VALID,20.8162,VALID,187,VALID,1.01808
2000-06-04, 00:22:00,VALID,915.295,VALID,0,VALID,94.1204,VALID,-0.0509425,VALID,20.8003,VALID,185,VALID,0.823518
2000-06-04, 00:23:00,VALID,915.281,VALID,0,VALID,94.0441,VALID,-0.0339617,VALID,20.768,VALID,198,VALID,0.758384
2000-06-04, 00:24:00,VALID,915.281,VALID,0,VALID,94.1903,VALID,-0.0339617,VALID,20.7152,VALID,223,VALID,0.390625
2000-06-04, 00:25:00,VALID,915.282,VALID,0,VALID,94.5578,VALID,0,VALID,20.66,VALID,198,VALID,0.85178
2000-06-04, 00:26:00,VALID,915.289,VALID,0,VALID,94.8312,VALID,0.0169808,VALID,20.579,VALID,204,VALID,0.743273
2000-06-04, 00:27:00,VALID,915.29,VALID,0,VALID,95.2902,VALID,0,VALID,20.5146,VALID,208,VALID,0.671652
2000-06-04, 00:28:00,VALID,915.278,VALID,0,VALID,95.7976,VALID,-0.0169808,VALID,20.457,VALID,198,VALID,0.726768
2000-06-04, 00:29:00,VALID,915.271,VALID,0,VALID,96.1765,VALID,-0.0169808,VALID,20.4021,VALID,176,VALID,0.963894
2000-06-04, 00:30:00,VALID,915.273,VALID,0,VALID,96.3584,VALID,0,VALID,20.3593,VALID,170,VALID,0.744391
2000-06-04, 00:31:00,VALID,915.269,VALID,0,VALID,95.397,VALID,-0.0169808,VALID,20.279,VALID,153,VALID,0.557227
2000-06-04, 00:32:00,VALID,915.269,VALID,0,VALID,94.76,VALID,0,VALID,20.1856,VALID,135,VALID,0.674862
2000-06-04, 00:33:00,VALID,915.267,VALID,0,VALID,95.7671,VALID,0.0169808,VALID,20.1498,VALID,123,VALID,0.807492
2000-06-04, 00:34:00,VALID,915.264,VALID,0,VALID,96.3953,VALID,0,VALID,20.1528,VALID,117,VALID,0.826322
2000-06-04, 00:35:00,VALID,915.249,VALID,0,VALID,96.3927,VALID,0.0339617,VALID,20.1075,VALID,125,VALID,0.829327
2000-06-04, 00:36:00,VALID,915.24,VALID,0,VALID,97.101,VALID,0.0509425,VALID,20.1334,VALID,141,VALID,0.781044
2000-06-04, 00:37:00,VALID,915.236,VALID,0,VALID,97.3629,VALID,0.0169808,VALID,20.1888,VALID,155,VALID,0.704392
2000-06-04, 00:38:00,VALID,915.22,VALID,0,VALID,97.3655,VALID,0.0339617,VALID,20.2271,VALID,159,VALID,0.911241
2000-06-04, 00:39:00,VALID,915.182,VALID,0,VALID,97.1735,VALID,0.0169808,VALID,20.2564,VALID,163,VALID,0.815705
2000-06-04, 00:40:00,VALID,915.159,VALID,0,VALID,96.5771,VALID,0,VALID,20.2437,VALID,157,VALID,0.669531
2000-06-04, 00:41:00,VALID,915.137,VALID,0,VALID,96.338,VALID,0,VALID,20.2139,VALID,157,VALID,0.63742
2000-06-04, 00:42:00,VALID,915.109,VALID,0,VALID,96.3698,VALID,0.0169808,VALID,20.2147,VALID,158,VALID,0.630809
2000-06-04, 00:43:00,VALID,915.076,VALID,0,VALID,96.1358,VALID,0.0169808,VALID,20.1729,VALID,155,VALID,0.495226
2000-06-04, 00:44:00,VALID,915.054,VALID,0,VALID,95.4581,VALID,-0.0169808,VALID,20.1051,VALID,155,VALID,0.303865
2000-06-04, 00:45:00,VALID,915.008,VALID,0,VALID,95.4784,VALID,0,VALID,20.0698,VALID,155,VALID,0
2000-06-04, 00:46:00,VALID,914.969,VALID,0,VALID,95.7505,VALID,0,VALID,20.0275,VALID,155,VALID,0
2000-06-04, 00:47:00,VALID,914.933,VALID,0,VALID,95.2546,VALID,-0.118866,VALID,19.9512,VALID,155,VALID,0
2000-06-04, 00:48:00,VALID,914.909,VALID,0,VALID,94.8871,VALID,-0.101885,VALID,19.864,VALID,155,VALID,0
2000-06-04, 00:49:00,VALID,914.895,VALID,0,VALID,95.5662,VALID,-0.101885,VALID,19.822,VALID,135,VALID,0
2000-06-04, 00:50:00,VALID,914.895,VALID,0,VALID,96.0774,VALID,-0.101885,VALID,19.8155,VALID,133,VALID,0
2000-06-04, 00:51:00,VALID,914.867,VALID,0,VALID,96.5059,VALID,-0.0679233,VALID,19.8188,VALID,133,VALID,0
2000-06-04, 00:52:00,VALID,914.844,VALID,0,VALID,96.9726,VALID,-0.101885,VALID,19.8449,VALID,133,VALID,0
2000-06-04, 00:53:00,VALID,914.817,VALID,0,VALID,97.0209,VALID,-0.101885,VALID,19.8086,VALID,136,VALID,0.384046
2000-06-04, 00:54:00,VALID,914.794,VALID,0,VALID,96.9217,VALID,-0.101885,VALID,19.7832,VALID,136,VALID,0.712277
2000-06-04, 00:55:00,VALID,914.787,VALID,0,VALID,96.8988,VALID,-0.0849042,VALID,19.7676,VALID,128,VALID,0.867188
2000-06-04, 00:56:00,VALID,914.78,VALID,0,VALID,97.0298,VALID,-0.101885,VALID,19.774,VALID,125,VALID,0.894055
2000-06-04, 00:57:00,VALID,914.789,VALID,0,VALID,97.4494,VALID,-0.101885,VALID,19.8195,VALID,134,VALID,0.69668
2000-06-04, 00:58:00,VALID,914.793,VALID,0,VALID,97.574,VALID,-0.118866,VALID,19.8419,VALID,140,VALID,0.488498
2000-06-04, 00:59:00,VALID,914.804,VALID,0,VALID,97.3947,VALID,-0.101885,VALID,19.8322,VALID,141,VALID,0.404731
2000-06-04, 01:00:00,VALID,914.799,VALID,0,VALID,97.0387,VALID,-0.118866,VALID,19.8031,VALID,140,VALID,0.0854911
2000-06-04, 01:01:00,VALID,914.793,VALID,0,VALID,96.5555,VALID,-0.118866,VALID,19.7581,VALID,141,VALID,0
2000-06-04, 01:02:00,VALID,914.779,VALID,0,VALID,96.202,VALID,-0.101885,VALID,19.7164,VALID,140,VALID,0
2000-06-04, 01:03:00,VALID,914.756,VALID,0,VALID,96.5885,VALID,-0.118866,VALID,19.7164,VALID,141,VALID,0
2000-06-04, 01:04:00,VALID,914.754,VALID,0,VALID,96.6165,VALID,-0.101885,VALID,19.7129,VALID,140,VALID,0
2000-06-04, 01:05:00,VALID,914.735,VALID,0,VALID,96.441,VALID,-0.101885,VALID,19.6841,VALID,140,VALID,0
2000-06-04, 01:06:00,VALID,914.733,VALID,0,VALID,96.881,VALID,-0.0849042,VALID,19.69,VALID,144,VALID,0
2000-06-04, 01:07:00,VALID,914.718,VALID,0,VALID,96.9853,VALID,-0.101885,VALID,19.6838,VALID,149,VALID,0
2000-06-04, 01:08:00,VALID,914.733,VALID,0,VALID,96.7958,VALID,-0.101885,VALID,19.6286,VALID,149,VALID,0
2000-06-04, 01:09:00,VALID,914.737,VALID,0,VALID,96.7869,VALID,-0.0339617,VALID,19.5822,VALID,149,VALID,0
2000-06-04, 01:10:00,VALID,914.762,VALID,0,VALID,96.7577,VALID,0,VALID,19.5531,VALID,156,VALID,0
2000-06-04, 01:11:00,VALID,914.771,VALID,0,VALID,96.7678,VALID,0,VALID,19.5138,VALID,160,VALID,0
2000-06-04, 01:12:00,VALID,914.789,VALID,0,VALID,96.6903,VALID,-0.0169808,VALID,19.4786,VALID,160,VALID,0
2000-06-04, 01:13:00,VALID,914.793,VALID,0,VALID,96.6534,VALID,0,VALID,19.4532,VALID,160,VALID,0
2000-06-04, 01:14:00,VALID,914.796,VALID,0,VALID,96.5148,VALID,-0.0169808,VALID,19.4142,VALID,160,VALID,0
2000-06-04, 01:15:00,VALID,914.811,VALID,0,VALID,96.4181,VALID,0,VALID,19.3851,VALID,160,VALID,0
2000-06-04, 01:16:00,VALID,914.795,VALID,0,VALID,96.4715,VALID,-0.0169808,VALID,19.369,VALID,160,VALID,0
2000-06-04, 01:17:00,VALID,914.806,VALID,0,VALID,96.6954,VALID,-0.0169808,VALID,19.3722,VALID,160,VALID,0
2000-06-04, 01:18:00,VALID,914.822,VALID,0,VALID,96.8594,VALID,0,VALID,19.3791,VALID,160,VALID,0
2000-06-04, 01:19:00,VALID,914.823,VALID,0,VALID,96.9319,VALID,0,VALID,19.3662,VALID,160,VALID,0
2000-06-04, 01:20:00,VALID,914.815,VALID,0,VALID,96.9815,VALID,0,VALID,19.3794,VALID,160,VALID,0
2000-06-04, 01:21:00,VALID,914.796,VALID,0,VALID,96.8111,VALID,-0.0169808,VALID,19.3754,VALID,160,VALID,0
2000-06-04, 01:22:00,VALID,914.773,VALID,0,VALID,97.3045,VALID,0.0169808,VALID,19.4274,VALID,159,VALID,0.252009
2000-06-04, 01:23:00,VALID,914.753,VALID,0,VALID,97.8996,VALID,0,VALID,19.521,VALID,137,VALID,0.576606
2000-06-04, 01:24:00,VALID,914.748,VALID,0,VALID,98.1437,VALID,-0.0169808,VALID,19.6217,VALID,126,VALID,0.56851
2000-06-04, 01:25:00,VALID,914.724,VALID,0,VALID,97.7088,VALID,0,VALID,19.5951,VALID,131,VALID,0.375206
2000-06-04, 01:26:00,VALID,914.719,VALID,0,VALID,97.3312,VALID,-0.0169808,VALID,19.5822,VALID,131,VALID,0.304893
2000-06-04, 01:27:00,VALID,914.707,VALID,0,VALID,97.4062,VALID,-0.0339617,VALID,19.6277,VALID,131,VALID,0.109375
2000-06-04, 01:28:00,VALID,914.701,VALID,0,VALID,97.4253,VALID,0.0169808,VALID,19.65,VALID,131,VALID,0
2000-06-04, 01:29:00,VALID,914.698,VALID,0,VALID,97.424,VALID,0,VALID,19.689,VALID,132,VALID,0
2000-06-04, 01:30:00,VALID,914.692,VALID,0,VALID,97.2574,VALID,0,VALID,19.6987,VALID,145,VALID,0
2000-06-04, 01:31:00,VALID,914.702,VALID,0,VALID,97.0565,VALID,0,VALID,19.7022,VALID,175,VALID,0
2000-06-04, 01:32:00,VALID,914.705,VALID,0,VALID,96.4258,VALID,-0.0169808,VALID,19.6637,VALID,186,VALID,0
2000-06-04, 01:33:00,VALID,914.701,VALID,0,VALID,96.0621,VALID,0,VALID,19.576,VALID,212,VALID,0.604018
2000-06-04, 01:34:00,VALID,914.704,VALID,0,VALID,95.9171,VALID,0,VALID,19.5337,VALID,219,VALID,0.754934
2000-06-04, 01:35:00,VALID,914.697,VALID,0,VALID,96.4538,VALID,0,VALID,19.5014,VALID,231,VALID,0.928209
2000-06-04, 01:36:00,VALID,914.7,VALID,0,VALID,96.8721,VALID,-0.0169808,VALID,19.5046,VALID,221,VALID,0.995593
2000-06-04, 01:37:00,VALID,914.7,VALID,0,VALID,97.2358,VALID,0,VALID,19.5079,VALID,225,VALID,1.21699
2000-06-04, 01:38:00,VALID,914.719,VALID,0,VALID,97.6096,VALID,0,VALID,19.5402,VALID,228,VALID,1.19049
2000-06-04, 01:39:00,VALID,914.726,VALID,0,VALID,97.8958,VALID,-0.0679233,VALID,19.5866,VALID,230,VALID,1.27925
2000-06-04, 01:40:00,VALID,914.723,VALID,0,VALID,97.9835,VALID,-0.101885,VALID,19.6035,VALID,230,VALID,1.1857
2000-06-04, 01:41:00,VALID,914.732,VALID,0,VALID,98.0509,VALID,-0.118866,VALID,19.5933,VALID,235,VALID,1.05389
2000-06-04, 01:42:00,VALID,914.727,VALID,0,VALID,98.075,VALID,-0.135847,VALID,19.5968,VALID,236,VALID,1.17558
2000-06-04, 01:43:00,VALID,914.723,VALID,0,VALID,98.117,VALID,-0.101885,VALID,19.5876,VALID,238,VALID,1.17652
2000-06-04, 01:44:00,VALID,914.709,VALID,0,VALID,98.1285,VALID,-0.101885,VALID,19.5752,VALID,234,VALID,1.09983
2000-06-04, 01:45:00,VALID,914.697,VALID,0,VALID,98.2022,VALID,-0.118866,VALID,19.5523,VALID,230,VALID,0.952324
2000-06-04, 01:46:00,VALID,914.699,VALID,0,VALID,98.2353,VALID,-0.101885,VALID,19.5357,VALID,236,VALID,0.991797
2000-06-04, 01:47:00,VALID,914.679,VALID,0,VALID,98.3395,VALID,-0.101885,VALID,19.5225,VALID,233,VALID,0.895833
2000-06-04, 01:48:00,VALID,914.681,VALID,0,VALID,98.4896,VALID,-0.101885,VALID,19.5354,VALID,233,VALID,0.864583
2000-06-04, 01:49:00,VALID,914.656,VALID,0,VALID,98.5392,VALID,-0.101885,VALID,19.5387,VALID,229,VALID,0.862196
2000-06-04, 01:50:00,VALID,914.649,VALID,0,VALID,98.6371,VALID,-0.135847,VALID,19.5583,VALID,227,VALID,0.850123
2000-06-04, 01:51:00,VALID,914.631,VALID,0,VALID,98.693,VALID,-0.118866,VALID,19.5871,VALID,223,VALID,0.52097
2000-06-04, 01:52:00,VALID,914.622,VALID,0,VALID,98.707,VALID,-0.135847,VALID,19.604,VALID,227,VALID,0.701686
2000-06-04, 01:53:00,VALID,914.611,VALID,0,VALID,98.7159,VALID,-0.118866,VALID,19.614,VALID,229,VALID,0.664063
2000-06-04, 01:54:00,VALID,914.592,VALID,0,VALID,98.7452,VALID,-0.0679233,VALID,19.6222,VALID,237,VALID,0.695313
2000-06-04, 01:55:00,VALID,914.577,VALID,0,VALID,98.7744,VALID,-0.0339617,VALID,19.6411,VALID,228,VALID,0.566071
2000-06-04, 01:56:00,VALID,914.557,VALID,0,VALID,98.777,VALID,-0.0169808,VALID,19.6575,VALID,229,VALID,0.620443
2000-06-04, 01:57:00,VALID,914.546,VALID,0,VALID,98.7897,VALID,0,VALID,19.6731,VALID,231,VALID,0.521234
2000-06-04, 01:58:00,VALID,914.534,VALID,0,VALID,98.7197,VALID,-0.0339617,VALID,19.6734,VALID,226,VALID,0.469161
2000-06-04, 01:59:00,VALID,914.514,VALID,0,VALID,98.6816,VALID,-0.0339617,VALID,19.6706,VALID,225,VALID,0.565584
2000-06-04, 02:00:00,VALID,914.517,VALID,0,VALID,98.721,VALID,-0.0169808,VALID,19.6895,VALID,214,VALID,0.636607
2000-06-04, 02:01:00,VALID,914.522,VALID,0,VALID,98.8024,VALID,-0.0169808,VALID,19.7156,VALID,206,VALID,0.599359
2000-06-04, 02:02:00,VALID,914.533,VALID,0,VALID,98.8164,VALID,-0.0339617,VALID,19.7703,VALID,207,VALID,0.393674
2000-06-04, 02:03:00,VALID,914.533,VALID,0,VALID,98.8227,VALID,-0.0169808,VALID,19.8031,VALID,195,VALID,0.728906
2000-06-04, 02:04:00,VALID,914.514,VALID,0,VALID,98.8189,VALID,-0.0339617,VALID,19.8446,VALID,193,VALID,1.03885
2000-06-04, 02:05:00,VALID,914.505,VALID,0,VALID,98.6892,VALID,-0.0169808,VALID,19.8864,VALID,185,VALID,0.928602
2000-06-04, 02:06:00,VALID,914.488,VALID,0,VALID,98.5684,VALID,0,VALID,19.9085,VALID,197,VALID,1.03839
2000-06-04, 02:07:00,VALID,914.464,VALID,0,VALID,98.4069,VALID,-0.0169808,VALID,19.9445,VALID,195,VALID,1.02303
2000-06-04, 02:08:00,VALID,914.446,VALID,0,VALID,98.2391,VALID,0,VALID,19.9674,VALID,197,VALID,0.894426
2000-06-04, 02:09:00,VALID,914.426,VALID,0,VALID,98.0382,VALID,0,VALID,19.99,VALID,204,VALID,0.692909
2000-06-04, 02:10:00,VALID,914.415,VALID,0,VALID,97.9008,VALID,0,VALID,19.986,VALID,205,VALID,0.746875
2000-06-04, 02:11:00,VALID,914.391,VALID,0,VALID,97.7953,VALID,0,VALID,19.9994,VALID,202,VALID,0.846507
2000-06-04, 02:12:00,VALID,914.374,VALID,0,VALID,97.6084,VALID,-0.0339617,VALID,19.9932,VALID,216,VALID,0.591747
2000-06-04, 02:13:00,VALID,914.375,VALID,0,VALID,97.4545,VALID,0,VALID,19.9639,VALID,199,VALID,0.537059
2000-06-04, 02:14:00,VALID,914.382,VALID,0,VALID,97.3642,VALID,-0.0169808,VALID,19.9316,VALID,182,VALID,0.609575
2000-06-04, 02:15:00,VALID,914.38,VALID,0,VALID,97.2612,VALID,-0.0169808,VALID,19.8958,VALID,178,VALID,0.613692
2000-06-04, 02:16:00,VALID,914.382,VALID,0,VALID,97.3871,VALID,-0.0169808,VALID,19.8702,VALID,189,VALID,0.720017
2000-06-04, 02:17:00,VALID,914.375,VALID,0,VALID,97.6084,VALID,0,VALID,19.8536,VALID,187,VALID,0.855686
2000-06-04, 02:18:00,VALID,914.372,VALID,0,VALID,97.5982,VALID,0,VALID,19.8508,VALID,190,VALID,0.779848
2000-06-04, 02:19:00,VALID,914.363,VALID,0,VALID,97.6249,VALID,0,VALID,19.8116,VALID,198,VALID,0.75332
2000-06-04, 02:20:00,VALID,914.352,VALID,0,VALID,97.766,VALID,0,VALID,19.7951,VALID,190,VALID,0.663662
2000-06-04, 02:21:00,VALID,914.349,VALID,0,VALID,97.7686,VALID,0,VALID,19.7929,VALID,198,VALID,0.674079
2000-06-04, 02:22:00,VALID,914.348,VALID,0,VALID,97.8334,VALID,0,VALID,19.773,VALID,186,VALID,0.804905
2000-06-04, 02:23:00,VALID,914.33,VALID,0,VALID,97.9034,VALID,-0.0339617,VALID,19.7599,VALID,195,VALID,0.88713
2000-06-04, 02:24:00,VALID,914.312,VALID,0,VALID,97.9314,VALID,-0.0169808,VALID,19.7571,VALID,191,VALID,0.811061
2000-06-04, 02:25:00,VALID,914.299,VALID,0,VALID,97.9136,VALID,-0.0169808,VALID,19.7273,VALID,195,VALID,0.994038
2000-06-04, 02:26:00,VALID,914.285,VALID,0,VALID,97.953,VALID,0,VALID,19.7348,VALID,194,VALID,1.23311
2000-06-04, 02:27:00,VALID,914.271,VALID,0,VALID,98,VALID,0,VALID,19.7313,VALID,189,VALID,1.21368
2000-06-04, 02:28:00,VALID,914.244,VALID,0,VALID,98.0801,VALID,-0.0169808,VALID,19.7571,VALID,186,VALID,1.09643
2000-06-04, 02:29:00,VALID,914.229,VALID,0,VALID,98.0394,VALID,-0.0169808,VALID,19.7698,VALID,175,VALID,1.01845
2000-06-04, 02:30:00,VALID,914.191,VALID,0,VALID,98.0204,VALID,0,VALID,19.7887,VALID,178,VALID,1.15425
2000-06-04, 02:31:00,VALID,914.145,VALID,0,VALID,97.8792,VALID,-0.0169808,VALID,19.8153,VALID,173,VALID,0.912418
2000-06-04, 02:32:00,VALID,914.086,VALID,0,VALID,97.7406,VALID,0,VALID,19.8217,VALID,183,VALID,1.01172
2000-06-04, 02:33:00,VALID,914.041,VALID,0,VALID,97.6185,VALID,-0.0169808,VALID,19.8247,VALID,193,VALID,1.09263
2000-06-04, 02:34:00,VALID,913.998,VALID,0,VALID,97.3986,VALID,-0.0339617,VALID,19.8088,VALID,193,VALID,1.14603
2000-06-04, 02:35:00,VALID,913.962,VALID,0,VALID,97.3235,VALID,-0.0169808,VALID,19.8121,VALID,193,VALID,1.5705
2000-06-04, 02:36:00,VALID,913.924,VALID,0,VALID,97.2701,VALID,-0.0339617,VALID,19.8116,VALID,198,VALID,1.48359
2000-06-04, 02:37:00,VALID,913.915,VALID,0,VALID,97.2027,VALID,0,VALID,19.8312,VALID,217,VALID,1.26671
2000-06-04, 02:38:00,VALID,913.932,VALID,0,VALID,96.9052,VALID,0,VALID,19.8312,VALID,220,VALID,0.849392
2000-06-04, 02:39:00,VALID,913.948,VALID,0,VALID,96.9281,VALID,0,VALID,19.8212,VALID,233,VALID,0.975223
2000-06-04, 02:40:00,VALID,913.962,VALID,0,VALID,96.7767,VALID,-0.0169808,VALID,19.8056,VALID,230,VALID,0.59375
2000-06-04, 02:41:00,VALID,913.976,VALID,0,VALID,96.7818,VALID,-0.0169808,VALID,19.773,VALID,231,VALID,0.460515
2000-06-04, 02:42:00,VALID,913.973,VALID,0,VALID,96.7729,VALID,-0.0169808,VALID,19.7606,VALID,221,VALID,0.654247
2000-06-04, 02:43:00,VALID,913.958,VALID,0,VALID,96.7538,VALID,0,VALID,19.7114,VALID,220,VALID,0.729688
2000-06-04, 02:44:00,VALID,913.933,VALID,0,VALID,96.7844,VALID,0,VALID,19.6696,VALID,229,VALID,0.711397
2000-06-04, 02:45:00,VALID,913.917,VALID,0,VALID,96.8009,VALID,0,VALID,19.618,VALID,234,VALID,0.473958
2000-06-04, 02:46:00,VALID,913.906,VALID,0,VALID,96.8187,VALID,0,VALID,19.5767,VALID,208,VALID,0.221354
2000-06-04, 02:47:00,VALID,913.907,VALID,0,VALID,97.0196,VALID,-0.0169808,VALID,19.5307,VALID,208,VALID,0.0510817
2000-06-04, 02:48:00,VALID,913.917,VALID,0,VALID,97.2625,VALID,0,VALID,19.5114,VALID,183,VALID,0.164474
2000-06-04, 02:49:00,VALID,913.909,VALID,0,VALID,97.4596,VALID,0,VALID,19.5081,VALID,166,VALID,0.778927
2000-06-04, 02:50:00,VALID,913.908,VALID,0,VALID,97.6974,VALID,-0.0509425,VALID,19.5148,VALID,158,VALID,0.876953
2000-06-04, 02:51:00,VALID,913.912,VALID,0,VALID,97.9263,VALID,0,VALID,19.521,VALID,163,VALID,1.01482
2000-06-04, 02:52:00,VALID,913.894,VALID,0,VALID,98.0967,VALID,-0.0169808,VALID,19.5668,VALID,167,VALID,1.11914
2000-06-04, 02:53:00,VALID,913.898,VALID,0,VALID,98.22,VALID,-0.0339617,VALID,19.6117,VALID,171,VALID,1.11739
2000-06-04, 02:54:00,VALID,913.891,VALID,0,VALID,98.2404,VALID,0,VALID,19.6572,VALID,169,VALID,1.14263
2000-06-04, 02:55:00,VALID,913.896,VALID,0,VALID,98.1017,VALID,0,VALID,19.6833,VALID,168,VALID,1.05208
2000-06-04, 02:56:00,VALID,913.904,VALID,0,VALID,98.0636,VALID,-0.0339617,VALID,19.6995,VALID,167,VALID,1.17146
2000-06-04, 02:57:00,VALID,913.903,VALID,0,VALID,97.8462,VALID,0,VALID,19.6895,VALID,172,VALID,0.961349
2000-06-04, 02:58:00,VALID,913.905,VALID,0,VALID,97.8754,VALID,-0.0339617,VALID,19.692,VALID,177,VALID,0.804071
2000-06-04, 02:59:00,VALID,913.893,VALID,0,VALID,97.9479,VALID,-0.0339617,VALID,19.7151,VALID,187,VALID,0.800465
2000-06-04, 03:00:00,VALID,913.89,VALID,0,VALID,97.9428,VALID,0,VALID,19.7412,VALID,188,VALID,0.854096
2000-06-04, 03:01:00,VALID,913.869,VALID,0,VALID,97.8563,VALID,0,VALID,19.7477,VALID,189,VALID,0.954911
2000-06-04, 03:02:00,VALID,913.857,VALID,0,VALID,97.8245,VALID,-0.0169808,VALID,19.7705,VALID,181,VALID,0.909505
2000-06-04, 03:03:00,VALID,913.857,VALID,0,VALID,97.7737,VALID,-0.0339617,VALID,19.773,VALID,174,VALID,1.02204
2000-06-04, 03:04:00,VALID,913.84,VALID,0,VALID,97.5244,VALID,-0.0679233,VALID,19.7865,VALID,168,VALID,1.06908
2000-06-04, 03:05:00,VALID,913.806,VALID,0,VALID,97.2816,VALID,0,VALID,19.7768,VALID,163,VALID,1.15913
2000-06-04, 03:06:00,VALID,913.771,VALID,0,VALID,97.1188,VALID,-0.0169808,VALID,19.7636,VALID,161,VALID,1.05938
2000-06-04, 03:07:00,VALID,913.729,VALID,0,VALID,96.8657,VALID,-0.0679233,VALID,19.742,VALID,152,VALID,1.24199
2000-06-04, 03:08:00,VALID,913.688,VALID,0,VALID,96.7208,VALID,0,VALID,19.6731,VALID,150,VALID,1.25762
2000-06-04, 03:09:00,VALID,913.639,VALID,0,VALID,96.5885,VALID,0,VALID,19.6214,VALID,139,VALID,1.14395
2000-06-04, 03:10:00,VALID,913.598,VALID,0,VALID,96.5809,VALID,0,VALID,19.5767,VALID,135,VALID,1.301
2000-06-04, 03:11:00,VALID,913.538,VALID,0,VALID,96.8149,VALID,-0.0339617,VALID,19.5568,VALID,130,VALID,1.14714
2000-06-04, 03:12:00,VALID,913.509,VALID,0,VALID,96.8034,VALID,-0.0169808,VALID,19.5245,VALID,132,VALID,1.25804
2000-06-04, 03:13:00,VALID,913.487,VALID,0,VALID,97.0972,VALID,-0.0169808,VALID,19.531,VALID,140,VALID,0.978618
2000-06-04, 03:14:00,VALID,913.482,VALID,0,VALID,97.2383,VALID,0,VALID,19.5471,VALID,153,VALID,1.00887
2000-06-04, 03:15:00,VALID,913.519,VALID,0,VALID,97.3121,VALID,0,VALID,19.5638,VALID,172,VALID,0.933494
2000-06-04, 03:16:00,VALID,913.541,VALID,0,VALID,97.3426,VALID,0,VALID,19.576,VALID,181,VALID,0.985352
2000-06-04, 03:17:00,VALID,913.565,VALID,0,VALID,97.1836,VALID,0,VALID,19.5762,VALID,205,VALID,0.644531
2000-06-04, 03:18:00,VALID,913.578,VALID,0,VALID,97.0997,VALID,-0.0169808,VALID,19.5765,VALID,217,VALID,0.967949
2000-06-04, 03:19:00,VALID,913.571,VALID,0,VALID,97.2383,VALID,0,VALID,19.5794,VALID,214,VALID,1.1853
2000-06-04, 03:20:00,VALID,913.569,VALID,0,VALID,97.19,VALID,0,VALID,19.5663,VALID,202,VALID,1.10577
2000-06-04, 03:21:00,VALID,913.548,VALID,0,VALID,97.2498,VALID,-0.0169808,VALID,19.5407,VALID,188,VALID,1.02364
2000-06-04, 03:22:00,VALID,913.51,VALID,0,VALID,97.4418,VALID,0,VALID,19.5218,VALID,185,VALID,1.33995
2000-06-04, 03:23:00,VALID,913.512,VALID,0,VALID,97.5181,VALID,0,VALID,19.4731,VALID,197,VALID,1.20595
2000-06-04, 03:24:00,VALID,913.534,VALID,0,VALID,97.7482,VALID,-0.0339617,VALID,19.4604,VALID,220,VALID,0.879407
2000-06-04, 03:25:00,VALID,913.59,VALID,0,VALID,97.9784,VALID,0.0169808,VALID,19.44,VALID,232,VALID,1.28398
2000-06-04, 03:26:00,VALID,913.639,VALID,0,VALID,98.0674,VALID,-0.0169808,VALID,19.4375,VALID,226,VALID,1.23578
2000-06-04, 03:27:00,VALID,913.667,VALID,0,VALID,98.1768,VALID,0.0339617,VALID,19.4341,VALID,224,VALID,1.06931
2000-06-04, 03:28:00,VALID,913.677,VALID,0,VALID,98.3052,VALID,0,VALID,19.4343,VALID,219,VALID,0.965495
2000-06-04, 03:29:00,VALID,913.7,VALID,0,VALID,98.3281,VALID,-0.0169808,VALID,19.4343,VALID,200,VALID,0.600329
2000-06-04, 03:30:00,VALID,913.715,VALID,0,VALID,98.3688,VALID,-0.0339617,VALID,19.4276,VALID,207,VALID,0.67866
2000-06-04, 03:31:00,VALID,913.729,VALID,0,VALID,98.3993,VALID,-0.0169808,VALID,19.4403,VALID,222,VALID,0.730469
2000-06-04, 03:32:00,VALID,913.767,VALID,0,VALID,98.3891,VALID,-0.0169808,VALID,19.4405,VALID,219,VALID,0.733742
2000-06-04, 03:33:00,VALID,913.788,VALID,0,VALID,98.3344,VALID,0,VALID,19.4338,VALID,201,VALID,0.603885
2000-06-04, 03:34:00,VALID,913.787,VALID,0,VALID,98.281,VALID,-0.0169808,VALID,19.4313,VALID,203,VALID,0.387946
2000-06-04, 03:35:00,VALID,913.778,VALID,0,VALID,98.1984,VALID,0,VALID,19.3985,VALID,193,VALID,0.633681
2000-06-04, 03:36:00,VALID,913.757,VALID,0,VALID,98.295,VALID,0,VALID,19.4055,VALID,192,VALID,0.871595
2000-06-04, 03:37:00,VALID,913.733,VALID,0,VALID,98.309,VALID,-0.0339617,VALID,19.3985,VALID,196,VALID,1.02775
2000-06-04, 03:38:00,VALID,913.732,VALID,0,VALID,98.2874,VALID,0.0169808,VALID,19.3824,VALID,206,VALID,0.900699